INSAT-3DS

Last updated on Tue Jan 14 2025 00:02:18 GMT+0000 (Coordinated Universal Time)

1 58990U 24033A 25013.43591000 -.00000156 00000+0 00000+0 0 9997 2 58990 0.0822 92.9942 0001798 193.8654 65.3025 1.00270589 41852
UTC large
Height (km)
Speed (km/s)
/
Latitude / Longitude
Inclination (degrees)
Orbital Period (minutes)
Azimuth
Elevation
Range (km)
Doppler Factor

Next 0 passes for location: London (51.5072 / 0.1276)

Sorry there are no passes over London.